TimeEDT,TemperatureF,Dew PointF,Humidity,Sea Level PressureIn,VisibilityMPH,Wind Direction,Wind SpeedMPH,Gust SpeedMPH,PrecipitationIn,Events,Conditions,WindDirDegrees,DateUTC
12:44 AM,55.4,53.6,94,30.12,1.8,Calm,Calm,-,N/A,,Partly Cloudy,0,2013-08-19 04:44:00
12:54 AM,55.0,54.0,96,30.12,2.0,Calm,Calm,-,N/A,,Partly Cloudy,0,2013-08-19 04:54:00
1:02 AM,55.4,53.6,94,30.12,3.0,Calm,Calm,-,N/A,,Partly Cloudy,0,2013-08-19 05:02:00
1:09 AM,55.4,55.4,100,30.12,1.8,Calm,Calm,-,N/A,,Partly Cloudy,0,2013-08-19 05:09:00
1:20 AM,55.4,53.6,94,30.12,3.0,Calm,Calm,-,N/A,,Partly Cloudy,0,2013-08-19 05:20:00
1:54 AM,55.0,53.1,93,30.11,8.0,Calm,Calm,-,N/A,,Clear,0,2013-08-19 05:54:00
2:54 AM,54.0,53.1,97,30.09,5.0,Calm,Calm,-,N/A,,Clear,0,2013-08-19 06:54:00
3:26 AM,55.4,53.6,94,30.10,1.8,Calm,Calm,-,N/A,,Clear,0,2013-08-19 07:26:00
3:34 AM,53.6,53.6,100,30.10,2.0,Calm,Calm,-,N/A,,Clear,0,2013-08-19 07:34:00
3:54 AM,54.0,53.1,97,30.09,1.2,Calm,Calm,-,N/A,,Clear,0,2013-08-19 07:54:00
4:04 AM,53.6,53.6,100,30.10,3.0,Calm,Calm,-,N/A,,Clear,0,2013-08-19 08:04:00
4:54 AM,54.0,52.0,93,30.09,2.5,Calm,Calm,-,N/A,,Clear,0,2013-08-19 08:54:00
5:03 AM,53.6,51.8,94,30.09,3.0,Calm,Calm,-,N/A,,Clear,0,2013-08-19 09:03:00
5:37 AM,53.6,51.8,94,30.10,2.0,Calm,Calm,-,N/A,,Partly Cloudy,0,2013-08-19 09:37:00
5:47 AM,53.6,51.8,94,30.09,4.0,Calm,Calm,-,N/A,,Clear,0,2013-08-19 09:47:00
5:54 AM,54.0,52.0,93,30.09,6.0,SSW,3.5,-,N/A,,Clear,200,2013-08-19 09:54:00
6:54 AM,55.0,53.1,93,30.10,4.0,Calm,Calm,-,N/A,,Clear,0,2013-08-19 10:54:00
7:54 AM,61.0,57.9,90,30.09,8.0,Calm,Calm,-,N/A,,Clear,0,2013-08-19 11:54:00
8:54 AM,66.9,60.1,79,30.09,10.0,Calm,Calm,-,N/A,,Clear,0,2013-08-19 12:54:00
9:54 AM,66.9,60.1,79,30.08,10.0,Variable,3.5,-,N/A,,Scattered Clouds,0,2013-08-19 13:54:00
10:54 AM,69.1,60.1,73,30.08,10.0,SW,3.5,-,N/A,,Scattered Clouds,230,2013-08-19 14:54:00
11:54 AM,72.0,61.0,68,30.07,10.0,Calm,Calm,-,N/A,,Clear,0,2013-08-19 15:54:00
12:54 PM,73.0,60.1,64,30.06,10.0,Variable,3.5,-,N/A,,Clear,0,2013-08-19 16:54:00
1:54 PM,73.9,60.1,62,30.05,10.0,West,3.5,-,N/A,,Clear,270,2013-08-19 17:54:00
2:54 PM,77.0,60.1,56,30.02,10.0,SSW,8.1,-,N/A,,Clear,200,2013-08-19 18:54:00
3:54 PM,77.0,59.0,54,30.01,10.0,WSW,6.9,-,N/A,,Clear,250,2013-08-19 19:54:00
4:54 PM,77.0,55.9,48,30.01,10.0,WSW,10.4,-,N/A,,Clear,250,2013-08-19 20:54:00
5:54 PM,73.9,57.9,57,30.01,10.0,WSW,3.5,-,N/A,,Clear,240,2013-08-19 21:54:00
6:54 PM,71.1,64.9,81,30.02,10.0,Calm,Calm,-,N/A,,Clear,0,2013-08-19 22:54:00
7:54 PM,66.0,62.1,87,30.02,10.0,South,4.6,-,N/A,,Clear,180,2013-08-19 23:54:00
8:54 PM,63.0,59.0,87,30.03,10.0,Calm,Calm,-,N/A,,Clear,0,2013-08-20 00:54:00
9:54 PM,60.1,57.0,90,30.04,10.0,South,3.5,-,N/A,,Clear,170,2013-08-20 01:54:00
10:54 PM,60.1,55.9,86,30.04,10.0,South,3.5,-,N/A,,Clear,170,2013-08-20 02:54:00
11:54 PM,57.0,55.0,93,30.04,8.0,Calm,Calm,-,N/A,,Clear,0,2013-08-20 03:54:00